Regional Weather Roundup
Issued by NWS

Home | Current Version | Previous Version | Text Only | Print | Product List | Glossary On
Versions: 1 2 3 4 5 6 7 8 9 10 11 12 13 14 15 16 17 18 19 20 21 22 23 24 25 26 27 28 29 30 31 32 33 34 35 36 37 38 39 40 41 42 43 44 45 46 47 48 49
000
ASUS42 KFFC 281203
RWRGA
WEATHER ROUNDUP FOR GEORGIA
NATIONAL WEATHER SERVICE PEACHTREE CITY GA
800 AM EDT THU MAY 28 2015

NOTE: "FAIR" INDICATES FEW OR NO CLOUDS BELOW 12,000 FEET WITH NO
SIGNIFICANT WEATHER AND/OR OBSTRUCTIONS TO VISIBILITY.

* = USE WITH CAUTION. THE STATIONS MARKED WITH AN ASTERISK MAY NOT
REPORT WEATHER SUCH AS PRECIPITATION, FOG, OR THUNDER AND ARE NOT
QUALITY CONTROLLED BY NWS.

THE REMARK "TC" DENOTES TEMPERATURE READING IN DEGREES CELSIUS.

GAZ001>058-281300-
NORTH GEORGIA

CITY           SKY/WX    TMP DP  RH WIND       PRES   REMARKS
ATLANTA        CLOUDY    68  64  87 E6        30.21R
6HR MIN TEMP:  67; 6HR MAX TEMP:  68; 6HR PCP:  0.06;

ATHENS         PTSUNNY   69  65  86 W3        30.21R
6HR MIN TEMP:  65; 6HR MAX TEMP:  70; 6HR PCP: TRACE;

CHAMBLEE       CLOUDY    66  65  96 CALM      30.22R
6HR MIN TEMP:  65; 6HR MAX TEMP:  67; 6HR PCP:  0.08;

PEACHTREE CITY PTSUNNY   68  65  90 SE3       30.22R
6HR MIN TEMP:  66; 6HR MAX TEMP:  68; 6HR PCP: TRACE;

ROME           CLOUDY    67  65  93 CALM      30.21R
6HR MIN TEMP:  66; 6HR MAX TEMP:  67; 6HR PCP: TRACE;

WEST ATLANTA   CLOUDY    67  65  93 CALM      30.21R
6HR MIN TEMP:  66; 6HR MAX TEMP:  67; 6HR PCP:  0.13;

GAINESVILLE    CLOUDY    68  63  84 CALM      30.25R
6HR MIN TEMP:  65; 6HR MAX TEMP:  68; 6HR PCP: TRACE;

CARTERSVILLE   CLOUDY    66  64  93 CALM      30.22R
6HR MIN TEMP:  65; 6HR MAX TEMP:  66;



CITY           SKY/WX    TMP DP  RH WIND       PRES   REMARKS
DALTON*        CLOUDY    64  64 100 CALM      30.22R
LAWRENCEVILLE* PTSUNNY   66  61  82 CALM      30.20R
MARIETTA       CLOUDY    67  67 100 E3        30.22R
KENNESAW*      PTSUNNY   66  64  94 E6        30.22R
BLAIRSVILLE*     N/A     64  56  75 CALM      30.27R
$$

GAZ059>098-102>109-281300-
CENTRAL GEORGIA

CITY           SKY/WX    TMP DP  RH WIND       PRES   REMARKS
AUGUSTA-BUSH   PTSUNNY   71  67  87 SE5       30.21R
6HR MIN TEMP:  67; 6HR MAX TEMP:  71;

AUGUSTA-DANIEL PTSUNNY   73  65  75 S3        30.22R
6HR MIN TEMP:  71; 6HR MAX TEMP:  75;

COLUMBUS       CLOUDY    69  66  90 E7        30.18R
6HR MIN TEMP:  67; 6HR MAX TEMP:  71;

MACON          PTSUNNY   70  67  90 SE5       30.20R
6HR MIN TEMP:  67; 6HR MAX TEMP:  70;

ROBINS AFB     PTSUNNY   70  67  92 E5        30.19R


CITY           SKY/WX    TMP DP  RH WIND       PRES   REMARKS
LAGRANGE*      CLOUDY    71  71 100 CALM      30.20R
SYLVANIA*      SUNNY     70  70  98 CALM      30.22R
MILLEDGEVILLE* PTSUNNY   70  70 100 CALM      30.21R
$$

GAZ099>101-110>166-281300-
SOUTH GEORGIA

CITY           SKY/WX    TMP DP  RH WIND       PRES   REMARKS
SAVANNAH       MOSUNNY   72  67  84 CALM      30.21R
6HR MIN TEMP:  64; 6HR MAX TEMP:  72;

VALDOSTA       SUNNY     70  67  90 E5        30.18R
6HR MIN TEMP:  66; 6HR MAX TEMP:  70;

ALMA           SUNNY     70  66  87 E3        30.20R
6HR MIN TEMP:  63; 6HR MAX TEMP:  70;

FT STEWART     SUNNY     69  66  90 CALM      30.18R
ALBANY         MOSUNNY   71  67  87 E5        30.19R
HUNTER AFB     SUNNY     73  71  91 NE1       30.19R
MOODY AFB      SUNNY     69  65  88 E5        30.17R
BRUNSWICK        N/A     70  68  94 CALM      30.20R


CITY           SKY/WX    TMP DP  RH WIND       PRES   REMARKS
BAINBRIDGE*    MOSUNNY   73  72  94 E5        30.16S
MOULTRIE*      MOSUNNY   70  66  88 E3        30.19R
VIDALIA*       SUNNY     70  66  88 CALM      30.21R
WAYCROSS*      SUNNY     69  68  94 CALM      30.20R
DOUGLAS*       MOSUNNY   73  68  83 E3        30.21R
$$


USA.gov is the U.S. government's official web portal to all federal, state and local government web resources and services.